{"data":{"norad_id":62169,"epoch":"2026-09-21T22:00:03.000096Z","epoch_age_seconds":59876,"freshness":"FRESH","line1":"1 62169U 24225G   26264.91670139  .00006836  00000+0  51067-3 0  9999","line2":"2 62169  70.0018  29.7477 0004238 275.8864 204.4210 15.03224350  5772","mean_motion":15.0322435,"eccentricity":0.0004238,"inclination_deg":70.0018,"raan_deg":29.7477,"arg_perigee_deg":275.8864,"mean_anomaly_deg":204.421,"bstar":0.00051067,"rev_number":577,"period_min":95.794084229676,"perigee_km":554.02250346036,"apogee_km":559.90069303224,"semimajor_km":6935.0985982463,"source":"CELESTRAK","updated_at":"2026-09-22T09:00:49.535332Z"}}